Greensboro, NC

12:40 AM EST on February 25, 2017 (GMT -0500)
Piedmont Triad International

Weather History for KGSO - December, 2012

Change the Weather History Date:

Saturday, December 29, 2012

  Actual Average Record
Temperature  
Mean Temperature 43 °F 39 °F  
Max Temperature 51 °F 48 °F 74 °F (1984)
Min Temperature 35 °F 30 °F 11 °F (1925)
Degree Days  
Heating Degree Days 22 26  
Month to date heating degree days 499 683  
Since 1 July heating degree days 1278 1363  
Cooling Degree Days 0 0  
Month to date cooling degree days 0 0  
Year to date cooling degree days 1623 1483  
Moisture  
Dew Point 32 °F    
Average Humidity 74    
Maximum Humidity 100    
Minimum Humidity 48    
Precipitation  
Precipitation 0.12 in 0.09 in 1.75 in (1905)
Month to date precipitation 2.72 2.81  
Year to date precipitation 36.78 42.03  
Snow  
Snow 0.00 in 0.10 in 6.30 in (1935)
Month to date snowfall 0.0 0.7  
Since 1 July snowfall 0.0 0.8  
Snow Depth 0.00 in    
Sea Level Pressure  
Sea Level Pressure 29.80 in    
Wind  
Wind Speed 11 mph (WNW)    
Max Wind Speed 28 mph    
Max Gust Speed 35 mph    
Visibility 7 miles    
Events Rain    
T = Trace of Precipitation, MM = Missing Value Source: NWS Daily Summary

Daily Weather History Graph

Daily Weather History Graph

Search for Another Location

Airport or City:

Trip Planner

Search our weather history database for the weather conditions in past years. The results will help you decide how hot, cold, wet, or windy it might be!

Date:

Astronomy

Dec. 29, 2012 Rise Set
Actual Time 7:30 AM EST 5:14 PM EST
Civil Twilight 7:01 AM EST 5:42 PM EST
Nautical Twilight 6:29 AM EST 6:14 PM EST
Astronomical Twilight 5:58 AM EST 6:46 PM EST
Moon 6:42 PM EST (12/29) 8:05 AM EST (12/29)
Length of Visible Light 10h 41m
Length of Day
9h 44m
Full, 98% of the Moon is Illuminated
Dec 29
Full
Jan 4
Last Quarter
Jan 11
New
Jan 18
First Quarter
Jan 26
Full

Hourly Weather History & Observations

Time (EST) Temp. Windchill Dew Point Humidity Pressure Visibility Wind Dir Wind Speed Gust Speed Precip Events Conditions
12:54 AM 37.9 °F - 28.9 °F 70% 29.98 in 10.0 mi Calm Calm - N/A   Overcast
1:54 AM 37.0 °F 34.5 °F 30.9 °F 79% 29.93 in 10.0 mi East 3.5 mph - 0.00 in Rain Light Rain
2:54 AM 37.0 °F 34.5 °F 30.9 °F 79% 29.91 in 8.0 mi ESE 3.5 mph - 0.00 in Rain Light Rain
3:19 AM 35.6 °F - 32.0 °F 87% 29.91 in 9.0 mi Calm Calm - 0.01 in Rain Light Rain
3:54 AM 36.0 °F 32.1 °F 32.0 °F 86% 29.89 in 7.0 mi SE 4.6 mph - 0.03 in Rain Light Rain
4:14 AM 35.6 °F 29.9 °F 32.0 °F 87% 29.84 in 7.0 mi ESE 6.9 mph - 0.02 in Rain Light Rain
4:54 AM 36.0 °F 31.1 °F 33.1 °F 89% 29.80 in 5.0 mi SE 5.8 mph - 0.07 in Rain Light Rain
5:45 AM 35.6 °F - 33.8 °F 93% 29.75 in 7.0 mi Calm Calm - 0.01 in   Overcast
5:48 AM 35.6 °F - 33.8 °F 93% 29.76 in 7.0 mi Calm Calm - 0.01 in   Overcast
5:54 AM 36.0 °F - 33.1 °F 89% 29.77 in 7.0 mi Calm Calm - 0.01 in   Overcast
6:31 AM 35.6 °F - 33.8 °F 93% 29.74 in 7.0 mi Calm Calm - N/A   Overcast
6:46 AM 35.6 °F - 35.6 °F 100% 29.74 in 6.0 mi Calm Calm - N/A   Overcast
6:54 AM 36.0 °F - 35.1 °F 97% 29.75 in 5.0 mi Calm Calm - N/A   Overcast
7:34 AM 35.6 °F 29.9 °F 35.6 °F 100% 29.75 in 5.0 mi NW 6.9 mph - N/A   Overcast
7:54 AM 36.0 °F 30.3 °F 35.1 °F 97% 29.78 in 3.0 mi NW 6.9 mph - 0.00 in Rain Light Rain
8:02 AM 35.6 °F 29.9 °F 35.6 °F 100% 29.77 in 1.8 mi NW 6.9 mph - 0.00 in Rain Light Rain
8:18 AM 35.6 °F 30.7 °F 35.6 °F 100% 29.76 in 1.5 mi NW 5.8 mph - 0.01 in Rain Light Rain
8:37 AM 35.6 °F 31.7 °F 33.8 °F 93% 29.76 in 2.5 mi NW 4.6 mph - 0.01 in   Light Drizzle
8:50 AM 35.6 °F 31.7 °F 33.8 °F 93% 29.76 in 3.0 mi NW 4.6 mph - 0.01 in   Overcast
8:54 AM 36.0 °F 32.1 °F 34.0 °F 93% 29.78 in 3.0 mi NW 4.6 mph - 0.01 in   Overcast
9:35 AM 37.4 °F - 35.6 °F 93% 29.74 in 5.0 mi Calm Calm - N/A   Overcast
9:54 AM 37.0 °F 34.5 °F 35.1 °F 93% 29.76 in 4.0 mi WNW 3.5 mph - N/A   Overcast
10:02 AM 37.4 °F 34.9 °F 35.6 °F 93% 29.75 in 4.0 mi West 3.5 mph - N/A   Overcast
10:54 AM 39.0 °F 33.4 °F 37.0 °F 93% 29.75 in 5.0 mi WSW 8.1 mph - N/A   Overcast
11:54 AM 43.0 °F 37.2 °F 39.0 °F 86% 29.72 in 7.0 mi West 10.4 mph - N/A   Overcast
12:19 PM 42.8 °F 36.2 °F 37.4 °F 81% 29.69 in 8.0 mi West 12.7 mph - N/A   Scattered Clouds
12:54 PM 46.0 °F 41.0 °F 37.9 °F 73% 29.68 in 10.0 mi West 10.4 mph - N/A   Scattered Clouds
1:54 PM 48.9 °F - 36.0 °F 61% 29.67 in 10.0 mi WNW 18.4 mph 23.0 mph N/A   Mostly Cloudy
2:54 PM 48.9 °F - 32.0 °F 52% 29.69 in 10.0 mi NW 16.1 mph 27.6 mph N/A   Mostly Cloudy
3:54 PM 46.9 °F - 30.0 °F 52% 29.72 in 10.0 mi NW 15.0 mph 24.2 mph N/A   Mostly Cloudy
4:54 PM 45.0 °F 36.9 °F 28.0 °F 52% 29.75 in 10.0 mi NW 20.7 mph 25.3 mph N/A   Mostly Cloudy
5:54 PM 44.1 °F 37.4 °F 28.0 °F 53% 29.80 in 10.0 mi WNW 13.8 mph - N/A   Mostly Cloudy
6:54 PM 42.1 °F 34.2 °F 26.1 °F 53% 29.84 in 10.0 mi WNW 16.1 mph 25.3 mph N/A   Mostly Cloudy
7:54 PM 41.0 °F 33.5 °F 26.1 °F 55% 29.86 in 10.0 mi NW 13.8 mph - N/A   Mostly Cloudy
8:54 PM 39.9 °F 32.1 °F 26.1 °F 58% 29.89 in 10.0 mi NW 13.8 mph 21.9 mph N/A   Mostly Cloudy
9:54 PM 39.0 °F 29.3 °F 21.9 °F 50% 29.93 in 10.0 mi NW 19.6 mph 31.1 mph N/A   Overcast
10:54 PM 37.0 °F 26.4 °F 19.9 °F 50% 29.96 in 10.0 mi NW 20.7 mph 28.8 mph N/A   Scattered Clouds
11:54 PM 36.0 °F 24.4 °F 19.9 °F 52% 29.98 in 10.0 mi NW 23.0 mph 31.1 mph N/A   Scattered Clouds